DW6193 Weather Reports


Display with metric or nautical units.
time (UTC)temp
F
wind
direction
speed
MPH
gust
MPH
rain 1hr
in
rain 24hr
in
rain mn
in
humidity
%
barometer
mb
20260905015026 55 176 3.0 4.0 0.00 0.00 0.00 1016.0
20260905014544 55 176 3.0 4.0 0.00 0.00 0.00 1016.1
20260905014029 56 176 3.0 4.0 0.00 0.00 0.00 1016.0
20260905013525 56 176 3.0 4.0 0.00 0.00 0.00 1015.9
20260905013050 55 176 3.0 4.0 0.00 0.00 0.00 1015.9
20260905012526 56 176 3.0 4.0 0.00 0.00 0.00 1015.8
20260905012025 56 176 3.0 4.0 0.00 0.00 0.00 1015.8
20260905011610 58 176 3.0 4.0 0.00 0.00 0.00 1015.6
20260905011025 59 176 3.0 4.0 0.00 0.00 0.00 1015.7
20260905010528 62 176 3.0 4.0 0.00 0.00 0.00 1015.5
20260905010047 63 176 3.0 4.0 0.00 0.00 0.00 1015.5
20260905005525 66 176 3.0 4.0 0.00 0.00 0.00 1015.6
20260905005028 69 176 3.0 4.0 0.00 0.00 0.00 1015.6
20260905004545 65 176 3.0 4.0 0.00 0.00 0.00 1015.6
20260905004028 61 176 3.0 4.0 0.00 0.00 0.00 1015.5
20260905003528 61 176 3.0 4.0 0.00 0.00 0.00 1015.6
20260905003056 60 176 3.0 4.0 0.00 0.00 0.00 1015.4
20260905002526 60 176 3.0 4.0 0.00 0.00 0.00 1015.6
20260905002028 60 176 3.0 4.0 0.00 0.00 0.00 1015.6
20260905001553 60 176 3.0 4.0 0.00 0.00 0.00 1015.6
20260905001027 59 176 3.0 4.0 0.00 0.00 0.00 1015.7
20260905000526 58 176 3.0 4.0 0.00 0.00 0.00 1015.6
20260905000048 58 176 3.0 4.0 0.00 0.00 0.00 1015.7
20260904235527 58 176 3.0 4.0 0.00 0.00 0.00 1015.6
20260904235027 58 176 3.0 4.0 0.00 0.00 0.00 1015.6
20260904234546 57 176 3.0 4.0 0.00 0.00 0.00 1015.5
20260904234028 57 176 3.0 4.0 0.00 0.00 0.00 1015.6
20260904233530 57 176 3.0 4.0 0.00 0.00 0.00 1015.4
20260904233053 56 176 3.0 4.0 0.00 0.00 0.00 1015.5
20260904232530 56 176 3.0 4.0 0.00 0.00 0.00 1015.5
20260904232027 56 176 3.0 4.0 0.00 0.00 0.00 1015.5
20260904231551 56 176 3.0 4.0 0.00 0.00 0.00 1015.5
20260904231027 57 176 3.0 4.0 0.00 0.00 0.00 1015.4
20260904230531 56 176 3.0 4.0 0.00 0.00 0.00 1015.5
20260904230049 56 176 3.0 4.0 0.00 0.00 0.00 1015.4
20260904225525 55 176 3.0 4.0 0.00 0.00 0.00 1015.5
20260904225025 55 176 3.0 4.0 0.00 0.00 0.00 1015.3
20260904224548 54 176 3.0 4.0 0.00 0.00 0.00 1015.4
20260904224027 53 176 3.0 4.0 0.00 0.00 0.00 1015.5
20260904223526 53 176 3.0 4.0 0.00 0.00 0.00 1015.5
20260904223044 53 176 3.0 4.0 0.00 0.00 0.00 1015.4
20260904222528 52 176 3.0 4.0 0.00 0.00 0.00 1015.4
20260904222025 52 176 3.0 4.0 0.00 0.00 0.00 1015.4
20260904221556 53 176 3.0 9.0 0.00 0.00 0.00 1015.3
20260904221027 53 176 3.0 9.0 0.00 0.00 0.00 1015.4
20260904220527 52 128 5.0 12.0 0.00 0.00 0.00 1015.6
20260904220105 53 164 2.0 12.0 0.00 0.00 0.00 1015.5
20260904215530 53 190 7.0 16.0 0.00 0.00 0.00 1015.3
20260904215026 53 172 7.0 16.0 0.00 0.00 0.00 1015.3
20260904214551 58 160 7.0 16.0 0.00 0.00 0.00 1015.3
20260904214028 61 109 8.0 16.0 0.00 0.00 0.00 1015.2
20260904213531 62 100 9.0 16.0 0.00 0.00 0.00 1014.8
20260904213053 62 128 9.0 15.0 0.00 0.00 0.00 1014.6
20260904212529 62 99 7.0 15.0 0.00 0.00 0.00 1014.3
20260904212028 62 121 4.0 14.0 0.00 0.00 0.00 1014.4
20260904211545 63 135 4.0 15.0 0.00 0.00 0.00 1014.5
20260904211030 62 121 9.0 15.0 0.00 0.00 0.00 1014.4
20260904210526 63 118 4.0 14.0 0.00 0.00 0.00 1014.3
20260904210048 64 231 7.0 14.0 0.00 0.00 0.00 1014.3
20260904205529 64 123 6.0 14.0 0.00 0.00 0.00 1014.3
20260904205028 65 59 5.0 14.0 0.00 0.00 0.00 1014.3
20260904204553 65 116 7.0 14.0 0.00 0.00 0.00 1014.1
20260904204027 66 68 6.0 15.0 0.00 0.00 0.00 1014.1
20260904203527 67 105 5.0 15.0 0.00 0.00 0.00 1014.0
20260904203050 69 101 6.0 13.0 0.00 0.00 0.00 1014.1
20260904202526 72 268 5.0 15.0 0.00 0.00 0.00 1014.1
20260904202025 73 295 4.0 16.0 0.00 0.00 0.00 1014.0
20260904201606 74 141 5.0 16.0 0.00 0.00 0.00 1014.0
20260904201031 73 360 6.0 16.0 0.00 0.00 0.00 1014.0
20260904200528 72 243 5.0 16.0 0.00 0.00 0.00 1014.1
20260904200050 70 15 7.0 17.0 0.00 0.00 0.00 1014.0
20260904195529 69 22 8.0 17.0 0.00 0.00 0.00 1014.1
20260904195026 67 99 7.0 19.0 0.00 0.00 0.00 1014.1
20260904194543 67 42 8.0 19.0 0.00 0.00 0.00 1014.2
20260904194031 65 68 7.0 18.0 0.00 0.00 0.00 1014.3
20260904193527 66 114 9.0 18.0 0.00 0.00 0.00 1014.4
20260904193050 66 117 9.0 18.0 0.00 0.00 0.00 1014.4
20260904192533 67 110 12.0 18.0 0.00 0.00 0.00 1014.6
20260904192028 73 117 9.0 18.0 0.00 0.00 0.00 1014.5
20260904191544 72 103 10.0 20.0 0.00 0.00 0.00 1014.5
20260904191029 72 77 8.0 20.0 0.00 0.00 0.00 1014.4
20260904190528 71 103 10.0 16.0 0.00 0.00 0.00 1014.6
20260904190054 69 42 7.0 20.0 0.00 0.00 0.00 1014.5
20260904185529 66 105 7.0 20.0 0.00 0.00 0.00 1014.6
20260904185029 68 106 8.0 18.0 0.00 0.00 0.00 1014.5
20260904184550 67 136 8.0 18.0 0.00 0.00 0.00 1014.4
20260904184029 65 74 11.0 18.0 0.00 0.00 0.00 1014.4
20260904183530 65 113 7.0 16.0 0.00 0.00 0.00 1014.5
20260904183058 62 129 10.0 16.0 0.00 0.00 0.00 1014.4
20260904182526 63 109 5.0 18.0 0.00 0.00 0.00 1014.4
20260904182030 62 72 9.0 19.0 0.00 0.00 0.00 1014.5
20260904181544 63 114 9.0 24.0 0.00 0.00 0.00 1014.4
20260904181028 62 47 9.0 24.0 0.00 0.00 0.00 1014.4
20260904180528 63 119 11.0 22.0 0.00 0.00 0.00 1014.4
20260904180056 62 111 14.0 22.0 0.00 0.00 0.00 1014.3
20260904175530 66 118 8.0 18.0 0.00 0.00 0.00 1014.3
20260904175027 65 106 8.0 21.0 0.00 0.00 0.00 1014.2
20260904174557 63 278 10.0 22.0 0.00 0.00 0.00 1014.3
20260904174027 63 103 10.0 22.0 0.00 0.00 0.00 1014.3
20260904173527 62 109 14.0 22.0 0.00 0.00 0.00 1014.1
20260904173112 59 109 13.0 20.0 0.00 0.00 0.00 1014.2
20260904172532 61 112 11.0 22.0 0.00 0.00 0.00 1014.2
20260904172027 62 140 10.0 25.0 0.00 0.00 0.00 1014.2
20260904171555 59 77 12.0 25.0 0.00 0.00 0.00 1014.1
20260904171024 58 78 15.0 25.0 0.00 0.00 0.00 1014.2
20260904170529 57 80 13.0 22.0 0.00 0.00 0.00 1014.1
20260904170049 55 80 13.0 25.0 0.00 0.00 0.00 1014.0
20260904165528 54 80 17.0 25.0 0.00 0.00 0.00 1014.1
20260904165026 54 78 14.0 25.0 0.00 0.00 0.00 1014.1
20260904164555 54 74 16.0 27.0 0.00 0.00 0.00 1014.1
20260904164027 53 80 18.0 27.0 0.00 0.00 0.00 1014.1
20260904163534 53 80 18.0 27.0 0.00 0.00 0.00 1014.0
20260904163107 53 78 18.0 27.0 0.00 0.00 0.00 1013.9
20260904162529 53 80 20.0 27.0 0.00 0.00 0.00 1013.9
20260904162024 53 78 18.0 26.0 0.00 0.00 0.00 1013.9
20260904161548 52 108 17.0 26.0 0.00 0.00 0.00 1013.7
20260904161025 52 113 13.0 21.0 0.00 0.00 0.00 1013.8
20260904160531 52 103 13.0 22.0 0.00 0.00 0.00 1014.0
20260904160044 52 158 12.0 22.0 0.00 0.00 0.00 1013.9
20260904155526 52 107 15.0 23.0 0.00 0.00 0.00 1014.1
20260904155030 52 114 14.0 23.0 0.00 0.00 0.00 1013.9
20260904154553 52 126 14.0 23.0 0.00 0.00 0.00 1014.0
20260904154025 52 113 15.0 25.0 0.00 0.00 0.00 1013.8
20260904153527 52 111 13.0 25.0 0.00 0.00 0.00 1013.8
20260904153055 52 111 16.0 25.0 0.00 0.00 0.00 1013.8
20260904152530 52 122 15.0 26.0 0.00 0.00 0.00 1013.6
20260904152028 52 119 18.0 27.0 0.00 0.00 0.00 1013.8
20260904151547 52 116 17.0 28.0 0.00 0.00 0.00 1013.7
20260904151028 52 110 17.0 28.0 0.00 0.00 0.00 1013.5
20260904150531 52 106 17.0 27.0 0.00 0.00 0.00 1013.3
20260904150051 52 109 15.0 26.0 0.00 0.00 0.00 1013.2
20260904145527 52 112 14.0 27.0 0.00 0.00 0.00 1013.2
20260904145030 52 122 14.0 27.0 0.00 0.00 0.00 1013.2
20260904144553 52 112 16.0 27.0 0.00 0.00 0.00 1013.2
20260904144028 51 78 17.0 23.0 0.00 0.00 0.00 1013.2
20260904143528 51 77 14.0 24.0 0.00 0.00 0.00 1013.2
20260904143043 51 77 17.0 24.0 0.00 0.00 0.00 1013.2
20260904142530 51 76 13.0 21.0 0.00 0.00 0.00 1013.2
20260904142029 51 76 14.0 22.0 0.00 0.00 0.00 1013.2
20260904141544 51 76 16.0 22.0 0.00 0.00 0.00 1013.1
20260904141025 51 74 15.0 21.0 0.00 0.00 0.00 1012.9
20260904140528 51 99 11.0 21.0 0.00 0.00 0.00 1012.9
20260904140050 51 76 11.0 21.0 0.00 0.00 0.00 1013.0
20260904135527 51 78 13.0 21.0 0.00 0.00 0.00 1012.9
20260904135026 51 76 11.0 21.0 0.00 0.00 0.00 1012.9
20260904134548 51 74 12.0 20.0 0.00 0.00 0.00 1012.9
20260904134025 51 78 14.0 19.0 0.00 0.00 0.00 1012.7
20260904133525 51 81 10.0 21.0 0.00 0.00 0.00 1012.7
20260904133047 51 76 14.0 21.0 0.00 0.00 0.00 1012.7
20260904132529 51 81 9.0 20.0 0.00 0.00 0.00 1012.7
20260904132030 51 141 11.0 20.0 0.00 0.00 0.00 1012.6
20260904131556 51 76 11.0 22.0 0.00 0.00 0.00 1012.5
20260904131030 51 76 12.0 22.0 0.00 0.00 0.00 1012.4
20260904130527 51 74 15.0 22.0 0.00 0.00 0.00 1012.3
20260904130052 51 77 13.0 21.0 0.00 0.00 0.00 1012.3
20260904125529 51 77 13.0 21.0 0.00 0.00 0.00 1012.3
20260904125028 51 74 12.0 21.0 0.00 0.00 0.00 1012.2
20260904124556 51 71 16.0 20.0 0.00 0.00 0.00 1012.2
20260904124028 51 81 14.0 20.0 0.00 0.00 0.00 1012.3
20260904123525 51 80 12.0 20.0 0.00 0.00 0.00 1012.0
20260904123056 51 101 14.0 22.0 0.00 0.00 0.00 1012.2
20260904122528 51 99 15.0 22.0 0.00 0.00 0.00 1012.4
20260904122028 51 99 15.0 22.0 0.00 0.00 0.00 1012.4
20260904121543 51 81 14.0 21.0 0.00 0.00 0.00 1012.2
20260904121028 51 80 15.0 22.0 0.00 0.00 0.00 1012.3
20260904120528 51 122 15.0 22.0 0.00 0.00 0.00 1012.3
20260904120054 51 113 14.0 22.0 0.00 0.00 0.00 1012.2
20260904115528 51 109 14.0 24.0 0.00 0.00 0.00 1012.3
20260904115028 52 108 15.0 24.0 0.00 0.00 0.00 1012.2
20260904114547 52 106 13.0 22.0 0.00 0.00 0.00 1012.2
20260904114028 52 76 13.0 22.0 0.00 0.00 0.00 1012.1
20260904113528 52 108 16.0 22.0 0.00 0.00 0.00 1012.0
20260904113050 52 111 15.0 21.0 0.00 0.00 0.00 1012.0
20260904112530 51 114 15.0 20.0 0.00 0.00 0.00 1012.0
20260904112030 52 108 15.0 20.0 0.00 0.00 0.00 1012.0
20260904111544 52 69 15.0 20.0 0.00 0.00 0.00 1011.9
20260904111028 52 114 14.0 20.0 0.00 0.00 0.00 1011.9
20260904110529 52 116 14.0 21.0 0.00 0.00 0.00 1011.9
20260904110050 52 111 17.0 21.0 0.00 0.00 0.00 1012.0
20260904105527 52 108 17.0 22.0 0.00 0.00 0.00 1011.8
20260904105027 52 120 17.0 22.0 0.00 0.00 0.00 1011.9
20260904104543 52 116 20.0 22.0 0.00 0.00 0.00 1011.8
20260904104026 52 114 17.0 21.0 0.00 0.00 0.00 1011.7
20260904103531 52 116 15.0 21.0 0.00 0.00 0.00 1011.8
20260904103054 52 120 16.0 21.0 0.00 0.00 0.00 1011.9
20260904102529 52 114 16.0 21.0 0.00 0.00 0.00 1011.8
20260904102027 52 115 16.0 21.0 0.00 0.00 0.00 1011.7
20260904101555 52 111 13.0 19.0 0.00 0.00 0.00 1011.7
20260904101028 52 109 15.0 19.0 0.00 0.00 0.00 1011.5
20260904100530 52 106 16.0 19.0 0.00 0.00 0.00 1011.7
20260904100046 52 116 17.0 19.0 0.00 0.00 0.00 1011.6
20260904095527 52 115 15.0 19.0 0.00 0.00 0.00 1011.5
20260904095026 52 118 15.0 19.0 0.00 0.00 0.00 1011.6
20260904094554 52 117 16.0 20.0 0.00 0.00 0.00 1011.6
20260904094029 52 111 17.0 21.0 0.00 0.00 0.00 1011.6
20260904093528 52 109 18.0 21.0 0.00 0.00 0.00 1011.4
20260904093046 52 105 17.0 21.0 0.00 0.00 0.00 1011.4
20260904092528 52 110 17.0 21.0 0.00 0.00 0.00 1011.4
20260904092027 52 113 17.0 22.0 0.00 0.00 0.00 1011.4
20260904091550 52 112 18.0 23.0 0.00 0.00 0.00 1011.3
20260904091028 52 112 19.0 23.0 0.00 0.00 0.00 1011.3
20260904090526 52 109 16.0 22.0 0.00 0.00 0.00 1011.2
20260904090048 52 118 17.0 21.0 0.00 0.00 0.00 1011.4
20260904085526 52 114 15.0 20.0 0.00 0.00 0.00 1011.5
20260904085031 52 118 15.0 20.0 0.00 0.00 0.00 1011.3
20260904084545 52 110 16.0 21.0 0.00 0.00 0.00 1011.4
20260904084032 52 109 15.0 21.0 0.00 0.00 0.00 1011.4
20260904083528 52 118 16.0 20.0 0.00 0.00 0.00 1011.5
20260904083050 52 109 15.0 20.0 0.00 0.00 0.00 1011.4
20260904082527 52 109 16.0 20.0 0.00 0.00 0.00 1011.4
20260904082026 52 106 12.0 19.0 0.00 0.00 0.00 1011.4
20260904081605 53 113 16.0 19.0 0.00 0.00 0.00 1011.5
20260904081028 53 111 14.0 19.0 0.00 0.00 0.00 1011.4
20260904080528 53 106 15.0 19.0 0.00 0.00 0.00 1011.4
20260904080047 53 115 14.0 19.0 0.00 0.00 0.00 1011.5
20260904075530 53 118 15.0 18.0 0.00 0.00 0.00 1011.3
20260904075028 53 109 13.0 18.0 0.00 0.00 0.00 1011.5
20260904074607 53 112 14.0 18.0 0.00 0.00 0.00 1011.5
20260904074028 53 109 13.0 18.0 0.00 0.00 0.00 1011.4
20260904073527 53 107 16.0 18.0 0.00 0.00 0.00 1011.5
20260904073102 53 108 15.0 19.0 0.00 0.00 0.00 1011.6
20260904072527 53 117 16.0 19.0 0.00 0.00 0.00 1011.5
20260904072026 53 124 15.0 18.0 0.00 0.00 0.00 1011.5
20260904071544 53 117 15.0 17.0 0.00 0.00 0.00 1011.5
20260904071029 53 119 15.0 17.0 0.00 0.00 0.00 1011.5
20260904070528 53 112 14.0 16.0 0.00 0.00 0.00 1011.5
20260904070053 53 114 14.0 17.0 0.00 0.00 0.00 1011.4
20260904065529 53 124 13.0 17.0 0.00 0.00 0.00 1011.4
20260904065027 53 112 13.0 15.0 0.00 0.00 0.00 1011.5
20260904064551 53 116 12.0 15.0 0.00 0.00 0.00 1011.5
20260904064025 53 123 11.0 13.0 0.00 0.00 0.00 1011.5
20260904063527 53 122 9.0 12.0 0.00 0.00 0.00 1011.7
20260904063054 53 113 10.0 13.0 0.00 0.00 0.00 1011.5
20260904062527 53 117 10.0 13.0 0.00 0.00 0.00 1011.6
20260904062026 54 113 10.0 13.0 0.00 0.00 0.00 1011.5
20260904061546 54 122 9.0 13.0 0.00 0.00 0.00 1011.5
20260904061028 54 126 10.0 13.0 0.00 0.00 0.00 1011.6
20260904060529 54 106 9.0 14.0 0.00 0.00 0.00 1011.6
20260904060045 54 109 10.0 14.0 0.00 0.00 0.00 1011.5
20260904055528 54 116 11.0 14.0 0.00 0.00 0.00 1011.7
20260904055029 54 109 10.0 14.0 0.00 0.00 0.00 1011.5
20260904054555 54 112 9.0 14.0 0.00 0.00 0.00 1011.6
20260904054027 54 114 8.0 14.0 0.00 0.00 0.00 1011.6
20260904053525 54 347 5.0 12.0 0.00 0.00 0.00 1011.6
20260904053045 54 124 8.0 12.0 0.00 0.00 0.00 1011.6
20260904052531 54 116 9.0 12.0 0.00 0.00 0.00 1011.6
20260904052029 54 116 9.0 13.0 0.00 0.00 0.00 1011.6
20260904051545 54 109 10.0 13.0 0.00 0.00 0.00 1011.5
20260904051025 54 116 9.0 13.0 0.00 0.00 0.00 1011.5
20260904050528 55 109 10.0 15.0 0.00 0.00 0.00 1011.5
20260904050045 54 110 12.0 15.0 0.00 0.00 0.00 1011.7
20260904045525 54 110 11.0 15.0 0.00 0.00 0.00 1011.5
20260904045032 54 103 11.0 15.0 0.00 0.00 0.00 1011.5
20260904044551 54 118 11.0 15.0 0.00 0.00 0.00 1011.5
20260904044031 54 111 13.0 16.0 0.00 0.00 0.00 1011.5
20260904043527 54 115 13.0 16.0 0.00 0.00 0.00 1011.5
20260904043058 54 115 11.0 16.0 0.00 0.00 0.00 1011.5
20260904042530 54 109 11.0 16.0 0.00 0.00 0.00 1011.6
20260904042029 54 117 11.0 14.0 0.00 0.00 0.00 1011.6
20260904041547 54 109 11.0 14.0 0.00 0.00 0.00 1011.6
20260904041028 54 112 10.0 15.0 0.00 0.00 0.00 1011.5
20260904040528 54 18 9.0 16.0 0.00 0.00 0.00 1011.6
20260904040048 54 119 12.0 16.0 0.00 0.00 0.00 1011.6
20260904035526 54 112 13.0 16.0 0.00 0.00 0.00 1011.5
20260904035028 55 120 12.0 16.0 0.00 0.00 0.00 1011.5
20260904034550 55 117 10.0 14.0 0.00 0.00 0.00 1011.5
20260904034024 55 111 9.0 13.0 0.00 0.00 0.00 1011.4
20260904033529 54 9 9.0 14.0 0.00 0.00 0.00 1011.4
20260904033051 55 105 11.0 14.0 0.00 0.00 0.00 1011.3
20260904032526 55 114 11.0 14.0 0.00 0.00 0.00 1011.3
20260904032023 55 117 12.0 14.0 0.00 0.00 0.00 1011.2
20260904031548 55 113 12.0 14.0 0.00 0.00 0.00 1011.1
20260904031024 55 114 11.0 13.0 0.00 0.00 0.00 1011.0
20260904030526 55 112 10.0 13.0 0.00 0.00 0.00 1011.0
20260904030044 55 111 8.0 12.0 0.00 0.00 0.00 1011.1
20260904025525 55 130 9.0 12.0 0.00 0.00 0.00 1011.0
20260904025025 55 115 8.0 11.0 0.00 0.00 0.00 1011.0
20260904024546 54 128 7.0 12.0 0.00 0.00 0.00 1011.1
20260904024025 55 116 10.0 12.0 0.00 0.00 0.00 1011.0
20260904023525 55 112 10.0 12.0 0.00 0.00 0.00 1011.1
20260904023054 55 115 10.0 12.0 0.00 0.00 0.00 1011.0
20260904022525 55 112 10.0 12.0 0.00 0.00 0.00 1011.1
20260904022023 55 109 10.0 12.0 0.00 0.00 0.00 1011.1
20260904021555 55 111 10.0 12.0 0.00 0.00 0.00 1011.1
20260904021025 55 116 7.0 10.0 0.00 0.00 0.00 1010.9
20260904020525 56 121 7.0 10.0 0.00 0.00 0.00 1011.0
20260904020047 56 117 9.0 10.0 0.00 0.00 0.00 1011.1
20260904015524 56 119 8.0 10.0 0.00 0.00 0.00 1011.2